• In Austria
  • List of Countries
  • For 7 days
  • Water Temperature
  • Satellite Maps
  • Weather Map
  • News
  • Weather Widgets
  • user-avatar
    Login

    Hourly Weather Rakowo

    Today, 25 June, Monday

    Time Temperature Precipitation Wind Pressure Humidity
    00:00 +12°C° 0 mm 2 mps 761 mmHg 96%
    01:00 +11°C° 0 mm 1 mps 761 mmHg 96%
    02:00 +11°C° 0 mm 1 mps 761 mmHg 97%
    03:00 +11°C° 0 mm 1 mps 761 mmHg 97%
    04:00 +10°C° 0 mm 2 mps 761 mmHg 97%
    05:00 +12°C° 0 mm 2 mps 761 mmHg 93%
    06:00 +14°C° 0 mm 2 mps 761 mmHg 90%
    07:00 +15°C° 0 mm 2 mps 761 mmHg 86%
    08:00 +17°C° 0 mm 3 mps 761 mmHg 78%
    09:00 +19°C° 0 mm 3 mps 761 mmHg 69%
    10:00 +20°C° 0 mm 4 mps 761 mmHg 61%
    11:00 +21°C° 0.1 mm 4 mps 761 mmHg 57%
    12:00 +22°C° 0.1 mm 4 mps 761 mmHg 53%
    13:00 +23°C° 0.1 mm 4 mps 761 mmHg 49%
    14:00 +23°C° 0.3 mm 4 mps 761 mmHg 52%
    15:00 +23°C° 0.3 mm 4 mps 761 mmHg 55%
    16:00 +22°C° 0.3 mm 4 mps 761 mmHg 57%
    17:00 +21°C° 0.2 mm 4 mps 761 mmHg 62%
    18:00 +21°C° 0.2 mm 3 mps 761 mmHg 67%
    19:00 +20°C° 0.2 mm 2 mps 761 mmHg 72%
    20:00 +18°C° 0 mm 2 mps 761 mmHg 77%
    21:00 +17°C° 0 mm 2 mps 762 mmHg 83%
    22:00 +16°C° 0 mm 2 mps 762 mmHg 88%
    23:00 +15°C° 0 mm 2 mps 762 mmHg 90%

    Tomorrow, 26 June, Tuesday

    Time Temperature Precipitation Wind Pressure Humidity
    00:00 +15°C° 0 mm 2 mps 762 mmHg 91%
    01:00 +14°C° 0 mm 2 mps 762 mmHg 93%
    02:00 +14°C° 0 mm 2 mps 762 mmHg 93%
    03:00 +14°C° 0 mm 2 mps 762 mmHg 93%
    04:00 +14°C° 0 mm 2 mps 762 mmHg 92%
    05:00 +14°C° 0 mm 3 mps 762 mmHg 90%
    06:00 +16°C° 0 mm 3 mps 763 mmHg 88%
    07:00 +17°C° 0 mm 3 mps 763 mmHg 86%
    08:00 +19°C° 0 mm 4 mps 763 mmHg 75%
    09:00 +20°C° 0 mm 4 mps 763 mmHg 64%
    10:00 +22°C° 0 mm 4 mps 763 mmHg 53%
    11:00 +23°C° 0 mm 5 mps 763 mmHg 51%
    12:00 +25°C° 0 mm 5 mps 763 mmHg 48%
    13:00 +25°C° 0 mm 5 mps 763 mmHg 45%
    14:00 +25°C° 0 mm 5 mps 763 mmHg 46%
    15:00 +25°C° 0 mm 5 mps 763 mmHg 47%
    16:00 +25°C° 0 mm 5 mps 763 mmHg 49%
    17:00 +23°C° 0 mm 5 mps 763 mmHg 53%
    18:00 +22°C° 0 mm 4 mps 763 mmHg 58%
    19:00 +21°C° 0 mm 4 mps 763 mmHg 62%
    20:00 +19°C° 0 mm 4 mps 764 mmHg 68%
    21:00 +18°C° 0 mm 3 mps 764 mmHg 73%
    22:00 +16°C° 0 mm 3 mps 764 mmHg 78%
    23:00 +14°C° 0 mm 3 mps 765 mmHg 82%

    Day after tomorrow, 27 June, Wednesday

    Time Temperature Precipitation Wind Pressure Humidity
    00:00 +13°C° 0 mm 3 mps 765 mmHg 85%
    01:00 +13°C° 0 mm 3 mps 765 mmHg 88%
    02:00 +12°C° 0 mm 3 mps 765 mmHg 90%
    03:00 +13°C° 0 mm 2 mps 765 mmHg 92%
    04:00 +13°C° 0 mm 2 mps 765 mmHg 94%
    05:00 +13°C° 0 mm 3 mps 765 mmHg 88%
    06:00 +16°C° 0 mm 3 mps 765 mmHg 82%
    07:00 +18°C° 0 mm 3 mps 766 mmHg 76%
    08:00 +19°C° 0 mm 4 mps 766 mmHg 69%
    09:00 +21°C° 0 mm 4 mps 766 mmHg 62%
    10:00 +23°C° 0 mm 4 mps 766 mmHg 55%
    11:00 +23°C° 0.1 mm 4 mps 765 mmHg 52%
    12:00 +25°C° 0.1 mm 4 mps 765 mmHg 49%
    13:00 +26°C° 0.1 mm 4 mps 765 mmHg 46%
    14:00 +26°C° 0 mm 4 mps 765 mmHg 46%
    15:00 +27°C° 0 mm 4 mps 765 mmHg 45%
    16:00 +27°C° 0 mm 4 mps 765 mmHg 45%
    17:00 +26°C° 0 mm 4 mps 765 mmHg 51%
    18:00 +25°C° 0 mm 3 mps 765 mmHg 58%
    19:00 +24°C° 0 mm 3 mps 765 mmHg 64%
    20:00 +21°C° 0 mm 3 mps 765 mmHg 70%
    21:00 +20°C° 0 mm 3 mps 765 mmHg 76%
    22:00 +19°C° 0 mm 3 mps 765 mmHg 82%
    23:00 +18°C° 0 mm 3 mps 765 mmHg 85%

    28 June, Thursday

    Time Temperature Precipitation Wind Pressure Humidity
    00:00 +18°C° 0 mm 3 mps 765 mmHg 88%
    01:00 +17°C° 0 mm 3 mps 765 mmHg 91%
    02:00 +17°C° 0 mm 3 mps 765 mmHg 91%
    03:00 +17°C° 0 mm 3 mps 765 mmHg 92%
    04:00 +17°C° 0 mm 3 mps 765 mmHg 92%
    05:00 +18°C° 0 mm 4 mps 764 mmHg 86%
    06:00 +19°C° 0 mm 4 mps 764 mmHg 80%
    07:00 +21°C° 0 mm 5 mps 764 mmHg 73%
    08:00 +23°C° 0 mm 5 mps 764 mmHg 66%
    09:00 +26°C° 0 mm 6 mps 763 mmHg 58%
    10:00 +28°C° 0 mm 7 mps 763 mmHg 50%
    11:00 +28°C° 0 mm 7 mps 763 mmHg 47%
    12:00 +29°C° 0 mm 7 mps 762 mmHg 45%
    13:00 +30°C° 0 mm 7 mps 762 mmHg 43%
    14:00 +30°C° 0 mm 6 mps 762 mmHg 43%
    15:00 +30°C° 0 mm 6 mps 762 mmHg 43%
    16:00 +30°C° 0 mm 6 mps 761 mmHg 43%
    17:00 +29°C° 0 mm 5 mps 761 mmHg 48%
    18:00 +28°C° 0 mm 5 mps 761 mmHg 53%
    19:00 +27°C° 0 mm 4 mps 761 mmHg 59%
    20:00 +26°C° 0 mm 4 mps 761 mmHg 62%
    21:00 +25°C° 0 mm 4 mps 762 mmHg 65%
    22:00 +23°C° 0 mm 4 mps 762 mmHg 68%
    23:00 +22°C° 0 mm 4 mps 762 mmHg 70%

    29 June, Friday

    Time Temperature Precipitation Wind Pressure Humidity
    00:00 +21°C° 0 mm 4 mps 761 mmHg 73%
    01:00 +21°C° 0 mm 4 mps 761 mmHg 75%
    02:00 +20°C° 0 mm 4 mps 761 mmHg 78%
    03:00 +19°C° 0 mm 4 mps 761 mmHg 80%
    04:00 +19°C° 0 mm 3 mps 761 mmHg 83%
    05:00 +20°C° 0 mm 4 mps 761 mmHg 79%
    06:00 +22°C° 0 mm 4 mps 761 mmHg 75%
    07:00 +23°C° 0 mm 4 mps 761 mmHg 71%
    08:00 +26°C° 0 mm 5 mps 761 mmHg 64%
    09:00 +28°C° 0 mm 5 mps 761 mmHg 58%
    10:00 +30°C° 0 mm 5 mps 761 mmHg 52%
    11:00 +30°C° 0 mm 5 mps 760 mmHg 49%
    12:00 +32°C° 0 mm 5 mps 760 mmHg 47%
    13:00 +33°C° 0 mm 5 mps 760 mmHg 45%
    14:00 +33°C° 0 mm 5 mps 760 mmHg 45%
    15:00 +33°C° 0 mm 5 mps 760 mmHg 45%
    16:00 +32°C° 0 mm 5 mps 759 mmHg 45%
    17:00 +30°C° 0 mm 5 mps 760 mmHg 48%
    18:00 +29°C° 0 mm 4 mps 760 mmHg 50%
    19:00 +28°C° 0 mm 4 mps 760 mmHg 53%
    20:00 +26°C° 0 mm 4 mps 760 mmHg 57%
    21:00 +23°C° 0 mm 4 mps 761 mmHg 60%
    22:00 +21°C° 0 mm 3 mps 761 mmHg 64%
    23:00 +20°C° 0 mm 3 mps 762 mmHg 68%

    30 June, Saturday

    Time Temperature Precipitation Wind Pressure Humidity
    00:00 +19°C° 0 mm 3 mps 762 mmHg 72%
    01:00 +18°C° 0 mm 3 mps 762 mmHg 76%
    02:00 +17°C° 0 mm 3 mps 762 mmHg 76%
    03:00 +16°C° 0 mm 3 mps 763 mmHg 77%
    04:00 +14°C° 0 mm 3 mps 763 mmHg 77%
    05:00 +16°C° 0 mm 3 mps 763 mmHg 69%
    06:00 +17°C° 0 mm 4 mps 763 mmHg 62%
    07:00 +18°C° 0 mm 4 mps 764 mmHg 54%
    08:00 +20°C° 0 mm 4 mps 764 mmHg 48%
    09:00 +22°C° 0 mm 4 mps 764 mmHg 42%
    10:00 +23°C° 0 mm 4 mps 764 mmHg 36%
    11:00 +25°C° 0 mm 4 mps 764 mmHg 33%
    12:00 +26°C° 0 mm 4 mps 764 mmHg 31%
    13:00 +27°C° 0 mm 4 mps 764 mmHg 28%
    14:00 +28°C° 0 mm 4 mps 764 mmHg 29%
    15:00 +28°C° 0 mm 4 mps 764 mmHg 30%
    16:00 +28°C° 0 mm 3 mps 764 mmHg 31%
    17:00 +27°C° 0 mm 3 mps 764 mmHg 37%
    18:00 +26°C° 0 mm 3 mps 764 mmHg 43%
    19:00 +25°C° 0 mm 2 mps 764 mmHg 48%
    20:00 +23°C° 0 mm 2 mps 764 mmHg 53%
    21:00 +20°C° 0 mm 3 mps 764 mmHg 57%
    22:00 +18°C° 0 mm 3 mps 765 mmHg 62%
    23:00 +17°C° 0 mm 3 mps 765 mmHg 64%
    Show more